Location: Ar Ranvel
(48.3000°N, 4.8833°W)
Time: 22:20:24
(UTC+00:00)

Meteor 2-10 Rocket - Pass Details

Date: 01 November 2021
Orbit: 733 x 885 km, 81.2° (Epoch: 30 November)

Event Time Altitude Azimuth Distance (km) Brightness Sun altitude
Rises 02:49:27 0° 4° (N) 3,183 7.1 -41.9°
Reaches altitude 10° 02:53:55 10° 41° (NE) 2,246 6.5 -41.3°
Maximum altitude 02:55:10 11° 56° (NE) 2,185 6.5 -41.1°
Drops below altitude 10° 02:56:26 10° 70° (ENE) 2,243 6.6 -40.9°
Sets 03:00:52 0° 107° (ESE) 3,171 7.2 -40.3°
